Weather History for Fargo, ND

Change the Weather History Date:

Saturday, March 24, 2012

  Actual Average Record
Temperature  
Mean Temperature 54 °F 32 °F  
Max Temperature 66 °F 41 °F 70 °F (1945)
Min Temperature 42 °F 23 °F -20 °F (1882)
Degree Days  
Heating Degree Days 11 33  
Month to date heating degree days 581 936  
Since 1 July heating degree days 6008 7614  
Cooling Degree Days 0 0  
Month to date cooling degree days 6 0  
Year to date cooling degree days 6 0  
Growing Degree Days 1 (Base 50)    
Moisture  
Dew Point 44 °F    
Average Humidity 71    
Maximum Humidity 93    
Minimum Humidity 48    
Precipitation  
Precipitation 0.00 in 0.04 in 0.75 in (1914)
Month to date precipitation 0.46 1.00  
Year to date precipitation 1.99 2.31  
Snow  
Snow 0.00 in 0.20 in 7.10 in (1936)
Month to date snowfall 2.6 7.8  
Since 1 July snowfall 27.0 45.8  
Snow Depth 0.00 in    
Sea Level Pressure  
Sea Level Pressure 29.98 in    
Wind  
Wind Speed 9 mph (NE)    
Max Wind Speed 30 mph    
Max Gust Speed 33 mph    
Visibility 5 miles    
Events Fog    
T = Trace of Precipitation, MM = Missing Value Source: NWS Daily Summary

Daily Weather History Graph

Daily Weather History Graph

Search for Another Location

Airport:

Trip Planner

Search our weather history database for the weather conditions in past years. The results will help you decide how hot, cold, wet, or windy it might be!

Date:

Astronomy

Mar. 24, 2012 Rise Set
Actual Time 7:21 AM CDT 7:46 PM CDT
Civil Twilight 6:50 AM CDT 8:16 PM CDT
Nautical Twilight 6:14 AM CDT 8:52 PM CDT
Astronomical Twilight 5:37 AM CDT 9:30 PM CDT
Moon 7:50 AM CDT (3/24) 10:19 PM CDT (3/24)
Length of Visible Light 13h 25m
Length of Day
12h 25m
Waxing Crescent, 4% of the Moon is Illuminated
Mar 24
Waxing Crescent
Mar 30
First Quarter
Apr 6
Full
Apr 13
Last Quarter
Apr 21
New

Hourly Weather History & Observations

Time (CDT) Temp. Windchill Dew Point Humidity Pressure Visibility Wind Dir Wind Speed Gust Speed Precip Events Conditions
12:53 AM 53.1 °F - 51.1 °F 93% 29.90 in 0.2 mi Calm Calm - N/A Fog Fog
1:07 AM 53.6 °F - 51.8 °F 94% 29.89 in 0.2 mi Calm Calm - N/A Fog Fog
1:16 AM 53.6 °F - 51.8 °F 94% 29.89 in 0.8 mi SSE 3.5 mph - N/A   Overcast
1:21 AM 53.6 °F - 51.8 °F 94% 29.89 in 2.0 mi Calm Calm - N/A   Overcast
1:29 AM 53.6 °F - 51.8 °F 94% 29.89 in 5.0 mi Calm Calm - N/A   Overcast
1:42 AM 53.6 °F - 50.0 °F 88% 29.89 in 1.5 mi Calm Calm - N/A   Overcast
1:50 AM 53.6 °F - 50.0 °F 88% 29.89 in 0.5 mi Calm Calm - N/A Fog Fog
1:53 AM 53.1 °F - 50.0 °F 89% 29.89 in 0.2 mi Calm Calm - N/A Fog Fog
2:04 AM 51.8 °F - 48.2 °F 88% 29.89 in 0.2 mi Calm Calm - N/A Fog Fog
2:14 AM 51.8 °F - 48.2 °F 88% 29.89 in 0.2 mi Calm Calm - N/A Fog Fog
2:51 AM 53.6 °F - 51.8 °F 94% 29.88 in 0.2 mi SSE 4.6 mph - N/A Fog Fog
2:53 AM 54.0 °F - 52.0 °F 93% 29.89 in 0.2 mi SE 5.8 mph - N/A Fog Fog
3:16 AM 51.8 °F - 48.2 °F 88% 29.88 in 0.8 mi South 4.6 mph - N/A   Mist
3:22 AM 51.8 °F - 48.2 °F 88% 29.88 in 1.5 mi SSE 3.5 mph - N/A   Scattered Clouds
3:24 AM 51.8 °F - 48.2 °F 88% 29.88 in 3.0 mi SSE 3.5 mph - N/A   Partly Cloudy
3:53 AM 50.0 °F - 46.4 °F 87% 29.88 in 8.0 mi South 4.6 mph - N/A   Clear
4:53 AM 48.9 °F - 46.9 °F 93% 29.90 in 2.0 mi SSW 3.5 mph - N/A   Clear
5:05 AM 48.2 °F - 44.6 °F 87% 29.90 in 1.0 mi Calm Calm - N/A   Clear
5:14 AM 48.2 °F - 44.6 °F 87% 29.90 in 3.0 mi Calm Calm - N/A   Clear
5:21 AM 46.4 °F - 44.6 °F 93% 29.90 in 1.5 mi Calm Calm - N/A   Partly Cloudy
5:23 AM 46.4 °F 45.2 °F 44.6 °F 93% 29.90 in 0.8 mi WNW 3.5 mph - N/A   Mist
5:39 AM 46.4 °F 45.2 °F 44.6 °F 93% 29.91 in 1.2 mi NW 3.5 mph - N/A   Partly Cloudy
5:45 AM 44.6 °F - 42.8 °F 93% 29.91 in 0.8 mi Calm Calm - N/A   Mist
5:53 AM 45.0 °F - 43.0 °F 93% 29.92 in 0.5 mi Calm Calm - N/A Fog Fog
6:05 AM 44.6 °F - 42.8 °F 93% 29.91 in 0.2 mi Calm Calm - N/A Fog Fog
6:42 AM 44.6 °F 43.1 °F 42.8 °F 93% 29.91 in 0.8 mi ESE 3.5 mph - N/A   Mist
6:53 AM 45.0 °F 43.5 °F 43.0 °F 93% 29.93 in 0.5 mi SE 3.5 mph - N/A Fog Fog
7:01 AM 46.4 °F 44.3 °F 42.8 °F 87% 29.93 in 1.0 mi SSE 4.6 mph - N/A   Clear
7:08 AM 44.6 °F 42.2 °F 42.8 °F 93% 29.93 in 3.0 mi SSE 4.6 mph - N/A   Clear
7:11 AM 44.6 °F 43.1 °F 42.8 °F 93% 29.93 in 1.8 mi South 3.5 mph - N/A   Clear
7:22 AM 46.4 °F 42.9 °F 42.8 °F 87% 29.93 in 4.0 mi SSE 6.9 mph - N/A   Clear
7:53 AM 48.0 °F - 45.0 °F 89% 29.94 in 3.0 mi SSE 5.8 mph - N/A   Clear
8:53 AM 48.9 °F - 46.0 °F 90% 29.94 in 5.0 mi SSE 8.1 mph - N/A   Clear
9:53 AM 52.0 °F - 46.9 °F 83% 29.96 in 10.0 mi SSW 6.9 mph - N/A   Clear
10:53 AM 57.0 °F - 48.0 °F 72% 29.96 in 10.0 mi SW 6.9 mph - N/A   Mostly Cloudy
11:53 AM 66.0 °F - 46.0 °F 48% 29.98 in 10.0 mi WNW 23.0 mph 27.6 mph N/A   Clear
12:27 PM 60.8 °F - 51.8 °F 72% 29.98 in 10.0 mi NNW 24.2 mph 32.2 mph N/A   Mostly Cloudy
12:53 PM 57.0 °F - 48.9 °F 74% 30.02 in 10.0 mi North 18.4 mph 31.1 mph N/A   Overcast
1:02 PM 53.6 °F - 46.4 °F 77% 30.02 in 10.0 mi NNW 25.3 mph 33.4 mph N/A   Overcast
1:12 PM 50.0 °F - 44.6 °F 82% 30.03 in 10.0 mi North 24.2 mph 31.1 mph N/A   Overcast
1:53 PM 45.0 °F 36.4 °F 39.0 °F 80% 30.09 in 8.0 mi North 23.0 mph 31.1 mph N/A   Overcast
2:36 PM 46.4 °F 39.8 °F 39.2 °F 76% 30.08 in 10.0 mi NNW 16.1 mph - N/A   Overcast
2:53 PM 46.9 °F - 39.0 °F 74% 30.11 in 10.0 mi North 17.3 mph - N/A   Overcast
3:53 PM 46.0 °F 39.0 °F 37.9 °F 73% 30.14 in 10.0 mi North 17.3 mph - N/A   Overcast
4:53 PM 45.0 °F 37.9 °F 37.0 °F 74% 30.15 in 10.0 mi North 16.1 mph - N/A   Overcast
5:53 PM 44.1 °F 37.1 °F 36.0 °F 73% 30.18 in 10.0 mi North 15.0 mph 23.0 mph N/A   Overcast
6:53 PM 42.1 °F 34.2 °F 34.0 °F 73% 30.20 in 10.0 mi North 16.1 mph - N/A   Overcast
7:17 PM 42.8 °F 35.1 °F 33.8 °F 70% 30.18 in 10.0 mi North 16.1 mph - N/A   Overcast
7:53 PM 41.0 °F 33.1 °F 34.0 °F 76% 30.21 in 10.0 mi NNE 15.0 mph 19.6 mph N/A   Overcast
8:53 PM 39.9 °F 32.9 °F 32.0 °F 73% 30.22 in 10.0 mi NNE 11.5 mph - N/A   Overcast
9:53 PM 37.9 °F 28.9 °F 30.0 °F 73% 30.24 in 10.0 mi North 16.1 mph 21.9 mph N/A   Overcast
10:53 PM 36.0 °F 25.6 °F 28.0 °F 73% 30.25 in 10.0 mi NNE 18.4 mph - N/A   Overcast
11:53 PM 35.1 °F 25.5 °F 26.1 °F 70% 30.26 in 10.0 mi North 15.0 mph - N/A   Overcast